Theta_e
321 321 321 320 320 319 318 315 314 316 318 319 320 320 321 321 319 320 320 320 319 319 318 317 315 313 312 311 310 308 307 307 306 304 303 302 300 300 300 298 298 300
319 318 316 318 317 314 316 316 314 315 315 317 319 320 320 319 318 319 319 319 317 317 316 315 314 313 311 309 308 308 306 304 303 302 301 300 299 298 297 294 295 295
318 317 317 317 318 315 314 313 313 313 313 314 316 318 318 317 317 318 319 318 316 315 313 313 313 311 310 309 308 307 305 304 303 300 301 301 300 300 299 298 297 298
316 317 317 317 317 314 312 311 311 311 310 310 313 315 316 315 316 316 316 311 315 313 311 311 311 310 309 308 306 305 305 305 304 301 301 299 300 300 298 298 297 296
314 315 316 316 314 312 311 311 311 310 310 311 310 309 311 313 313 313 313 312 313 310 308 308 308 308 307 306 305 304 302 302 300 302 301 299 296 298 296 297 296 294
311 313 313 315 313 312 311 311 311 310 310 308 309 307 310 311 312 311 310 309 307 308 306 305 305 304 305 304 303 304 301 301 299 301 300 299 295 295 296 296 295 294
310 311 312 312 311 311 311 311 311 308 310 310 307 306 307 307 308 309 308 307 305 304 305 304 304 302 302 302 302 301 300 301 298 299 300 297 296 294 294 295 295 294
309 308 310 310 311 311 311 310 309 307 307 304 305 305 305 306 306 306 306 306 305 304 303 302 302 303 300 302 301 301 299 300 298 298 299 297 296 295 293 294 293 292
306 307 308 308 309 308 308 307 306 304 303 304 304 302 300 304 304 303 303 303 303 302 302 300 302 301 299 301 301 300 299 298 298 299 298 296 295 294 293 292 292 291
305 304 304 306 307 306 306 305 305 304 302 304 303 301 301 300 301 302 301 301 301 300 300 299 299 299 298 299 301 300 299 298 297 297 297 297 296 293 292 292 291 289
303 303 304 304 305 304 304 303 302 302 300 303 301 300 300 298 297 298 300 300 300 299 299 298 298 297 297 297 298 299 299 298 296 296 296 295 294 293 290 291 290 289
302 302 303 304 304 303 302 301 300 300 299 299 300 301 298 298 298 297 298 298 298 298 298 297 296 296 297 297 297 297 297 296 295 294 293 292 292 291 290 290 289 286
302 302 303 303 302 302 301 300 299 299 299 299 298 299 297 296 296 296 294 297 296 295 295 295 294 294 295 296 296 296 296 294 293 292 291 291 290 289 287 285 285 285
302 302 302 302 302 301 300 300 299 298 299 298 296 297 296 296 295 295 292 293 293 294 293 293 293 293 294 294 294 294 293 292 292 291 290 288 286 285 285 285 285 285
300 299 300 299 299 299 298 298 298 297 297 296 295 296 295 295 295 294 292 291 290 291 291 291 293 293 293 293 293 292 292 291 290 289 289 286 285 284 284 284 284 284
298 296 297 296 297 297 296 295 295 294 294 293 295 294 293 293 293 293 293 292 291 291 291 292 292 293 291 292 293 292 291 290 289 289 288 287 286 285 285 285 284 283
295 294 293 294 296 295 293 293 294 292 292 293 292 292 292 292 292 293 292 292 292 291 291 291 291 291 291 294 294 293 290 289 289 288 288 287 287 286 284 283 283 283
294 294 293 294 293 294 293 293 292 291 292 291 291 290 290 290 291 291 291 291 291 291 290 290 290 290 294 294 294 293 291 289 289 288 288 287 286 285 283 282 282 282
293 293 293 292 292 292 291 291 290 291 291 290 290 289 289 290 290 289 289 289 290 290 289 289 289 292 293 293 293 293 293 289 288 288 287 286 285 283 283 282 282 282
292 292 292 292 291 290 290 290 290 290 290 289 289 288 289 289 288 289 288 289 290 289 288 288 289 291 293 293 292 293 292 290 287 287 286 284 283 282 282 282 282 281
291 291 292 291 290 290 289 289 290 289 289 288 289 289 289 289 288 288 288 288 289 289 289 288 289 291 292 292 292 292 292 289 285 284 283 282 281 281 281 281 281 281
291 291 290 290 289 289 289 289 289 289 288 288 288 288 288 288 288 288 287 287 288 288 288 287 288 291 291 291 292 292 290 285 283 282 281 281 280 280 280 280 281 282
290 291 290 289 289 289 288 289 288 287 287 287 288 288 287 288 287 287 287 287 287 287 288 287 288 290 290 291 291 290 285 282 281 281 280 280 280 280 280 280 281 281
290 290 290 288 288 288 288 288 288 287 287 288 288 287 287 287 287 286 287 287 287 287 287 286 286 287 290 290 289 287 284 281 281 280 280 280 280 281 281 281 281 282
287 288 289 288 288 288 288 287 287 287 287 287 287 287 287 286 286 286 285 285 286 286 285 286 286 287 289 289 288 286 283 281 281 280 280 280 280 280 280 280 281 281
285 286 287 288 287 287 287 287 287 286 286 287 287 287 286 285 285 285 284 283 284 284 285 285 285 284 286 288 287 286 285 281 281 280 279 279 279 279 279 279 279 280
Wind_Speed
13 12 12 11 11 10 10 10 9 10 10 8 9 9 9 8 6 8 8 7 9 9 8 7 7 7 7 6 6 5 6 5 5 5 6 6 5 6 6 5 4 5
13 12 10 9 8 7 8 9 10 10 10 10 9 8 7 7 8 9 9 9 8 8 8 8 7 7 8 7 6 6 6 5 5 4 6 6 6 6 5 5 4 3
11 10 10 11 12 11 10 8 9 9 9 9 9 8 8 9 8 9 9 9 8 8 8 7 8 8 7 7 7 6 7 7 6 5 5 6 6 6 5 5 4 5
10 11 11 11 10 9 8 8 8 7 7 7 10 10 9 8 9 9 9 9 9 8 7 7 8 8 7 7 7 6 7 7 7 7 6 4 6 5 4 4 4 4
10 10 9 8 7 6 7 9 10 9 9 10 7 7 8 9 9 9 9 8 8 8 7 7 6 7 7 7 7 6 5 6 5 7 6 5 4 5 4 5 5 5
7 7 7 8 8 9 9 10 10 10 9 8 10 8 9 9 10 10 9 9 7 8 8 8 7 6 7 7 6 6 6 5 6 7 6 6 4 4 4 5 7 6
8 8 9 9 9 10 10 10 9 9 9 9 7 9 9 9 9 10 9 9 9 8 9 8 8 7 6 7 6 6 5 6 6 6 7 5 6 4 4 6 6 7
8 7 8 8 9 9 10 9 8 8 8 6 8 8 9 9 10 9 9 9 9 9 8 7 7 8 7 7 7 7 6 6 7 6 6 7 6 7 5 5 6 7
7 7 7 9 10 8 8 8 7 7 7 9 8 7 7 8 9 9 9 9 8 8 8 7 7 7 7 8 7 8 7 6 7 8 8 8 8 6 7 7 6 6
7 6 7 7 8 7 8 7 7 7 8 8 8 7 9 7 7 8 8 9 9 8 8 8 8 7 7 7 8 8 8 8 7 7 8 8 9 8 6 7 7 6
6 6 7 8 8 7 9 8 8 7 7 8 7 7 6 6 6 6 8 8 9 9 9 9 9 8 8 7 6 7 8 8 7 7 7 8 8 9 8 7 6 6
8 8 9 9 9 8 8 7 7 6 7 5 7 8 8 8 9 8 9 9 8 8 8 8 8 8 8 9 8 7 6 7 7 7 7 7 7 8 7 6 7 6
8 8 8 8 7 7 6 6 7 7 8 8 7 8 9 8 7 8 5 7 7 7 8 9 8 8 8 8 8 7 7 8 7 7 8 7 7 7 6 6 6 6
7 7 7 7 7 6 7 7 7 7 7 6 7 7 8 7 8 7 5 5 7 7 7 8 8 8 7 8 8 8 8 8 8 8 8 8 8 7 7 6 5 5
5 4 4 4 5 5 5 5 6 6 5 6 6 6 6 7 7 8 8 7 6 7 7 7 8 8 8 9 8 7 7 8 8 8 9 9 9 7 6 6 5 5
4 4 4 4 5 5 5 5 5 5 6 6 6 6 7 7 7 7 8 9 9 7 7 7 6 6 9 13 11 9 8 7 7 8 8 9 9 8 7 6 6 5
4 4 4 5 5 5 5 6 6 6 6 6 6 7 8 7 7 8 7 6 8 9 8 6 6 7 13 13 14 14 10 8 8 7 8 9 9 9 8 7 6 6
6 6 6 6 6 6 6 6 6 6 6 6 6 6 5 6 7 6 7 7 7 7 7 7 6 10 14 14 15 15 12 9 8 8 8 9 9 9 8 7 7 6
7 7 7 6 5 5 5 5 6 6 6 6 6 4 6 6 6 7 6 6 8 8 7 7 7 12 15 16 16 15 15 11 7 8 9 9 9 9 9 8 7 7
6 7 6 6 5 5 5 5 6 6 5 5 6 6 6 6 6 7 7 7 8 9 8 7 8 12 15 16 14 15 16 12 8 9 8 8 9 9 8 8 8 8
6 6 6 6 6 6 6 6 6 5 6 6 7 8 9 8 8 7 7 7 8 8 8 8 8 14 15 16 15 16 17 13 8 8 8 7 7 6 7 7 6 7
7 7 6 6 7 7 7 7 7 7 7 6 5 4 4 6 6 7 9 8 8 9 9 8 8 15 15 16 16 18 17 9 9 9 8 7 7 6 6 6 6 7
7 7 7 7 7 7 7 7 7 6 6 5 6 6 6 6 7 7 7 9 9 9 9 8 7 12 15 16 17 19 12 8 9 8 8 8 7 5 6 5 5 6
6 6 7 6 6 7 6 5 4 4 5 6 8 8 6 5 5 5 5 5 8 8 8 9 7 10 15 16 18 16 12 10 9 9 8 8 7 6 5 5 5 8
5 5 5 6 6 5 5 6 6 6 5 4 4 5 6 6 6 6 5 4 4 6 9 10 7 9 14 16 18 17 13 10 10 10 10 8 8 6 5 6 5 6
5 5 5 6 7 6 5 6 5 6 6 6 5 5 6 6 6 6 7 5 5 7 7 8 9 7 10 18 18 17 16 11 9 11 10 9 8 9 9 4 4 5
Wind_Direction
211 209 210 207 209 205 198 194 193 195 200 197 200 201 201 201 181 188 194 189 189 190 185 181 178 169 157 161 167 154 159 174 169 161 166 157 150 147 156 144 142 159
213 210 209 208 209 200 202 194 191 193 196 196 200 199 196 187 193 188 191 196 190 189 179 175 169 167 157 160 165 167 153 160 164 166 153 152 150 150 147 150 151 126
209 208 205 206 207 203 197 188 187 193 191 196 195 192 192 190 183 189 194 194 191 187 182 178 165 170 166 155 165 171 163 163 164 171 157 155 150 156 155 143 139 155
208 206 207 209 206 198 187 184 192 190 188 186 196 193 185 183 183 189 189 186 187 183 174 171 172 164 157 149 162 178 170 166 168 159 157 152 156 152 152 140 134 127
203 205 206 204 198 188 182 192 194 193 193 197 185 178 180 182 185 187 188 186 183 173 166 172 169 162 154 155 161 170 169 163 159 156 156 155 152 142 150 142 131 124
199 197 196 194 191 187 191 198 197 194 194 186 188 181 187 182 187 188 184 183 184 171 171 170 169 158 160 156 160 174 167 164 165 161 152 148 141 132 146 145 132 137
195 192 195 195 194 195 197 200 198 194 194 192 172 186 178 185 187 187 182 180 175 175 174 172 166 164 162 154 166 170 167 164 161 171 151 144 141 135 146 138 138 137
198 195 193 192 195 195 201 197 193 191 188 171 183 187 182 183 185 181 179 178 177 174 171 168 168 163 161 161 169 167 168 164 163 166 154 149 146 156 150 134 138 139
191 192 188 193 196 196 198 192 189 185 176 179 184 183 185 184 182 178 179 176 176 173 166 166 167 163 166 168 168 166 168 166 169 166 155 150 149 157 144 137 136 132
191 189 188 191 196 193 193 190 186 183 180 185 184 173 182 187 177 172 169 176 175 169 168 167 166 166 166 171 167 168 169 167 167 167 157 156 151 147 146 144 142 129
189 184 189 193 195 190 195 188 186 181 181 184 171 174 177 164 172 171 171 172 174 172 169 169 168 162 162 163 163 168 167 162 162 158 151 149 147 146 146 139 137 142
187 187 192 193 192 191 190 182 177 174 175 177 172 174 172 180 173 176 177 178 173 170 165 161 156 161 164 166 162 159 156 154 152 147 142 139 137 133 131 134 140 133
188 191 189 189 187 183 176 173 175 176 173 177 180 173 173 175 178 172 178 166 163 156 161 155 154 156 159 155 151 151 150 146 142 135 131 126 124 122 119 95 100 117
193 189 186 186 181 176 175 177 174 173 180 173 168 170 172 172 167 164 157 155 159 160 155 150 150 152 150 147 146 147 145 144 141 135 126 120 112 95 88 107 122 143
185 184 172 165 164 162 165 167 170 171 165 161 170 167 162 160 157 153 150 148 149 150 148 148 151 154 151 146 141 139 140 138 139 136 132 121 90 96 108 115 133 152
168 157 158 153 156 160 160 156 158 159 159 162 169 163 158 155 156 161 161 157 152 145 140 144 146 141 144 143 141 140 135 130 132 137 131 129 123 115 118 125 129 133
161 167 153 168 171 162 158 161 164 164 165 167 164 162 159 159 157 158 158 151 147 144 141 138 133 134 141 140 137 135 133 137 137 136 133 132 135 136 138 134 129 134
174 170 176 182 176 179 172 171 163 166 170 166 158 157 154 146 156 153 143 141 132 130 132 133 130 144 143 142 141 142 141 137 138 139 141 142 140 137 139 141 142 142
175 177 182 180 185 173 166 158 165 167 165 159 164 149 136 150 147 138 138 131 133 133 131 136 138 154 146 146 147 147 145 136 140 143 144 145 140 143 146 148 148 140
175 174 178 177 163 154 153 160 166 176 164 153 139 137 147 141 140 141 139 140 141 138 139 146 147 161 151 149 147 146 147 147 138 139 138 138 145 148 150 150 151 142
173 175 171 162 160 157 161 167 171 158 154 158 156 158 156 156 150 144 145 142 142 141 142 153 164 162 154 151 150 150 150 143 130 129 130 130 133 138 142 144 142 138
171 172 169 164 164 165 169 171 168 165 160 154 145 144 138 137 139 143 149 148 147 145 143 151 161 162 152 151 151 150 139 131 131 129 126 123 120 126 130 133 139 141
178 173 173 171 169 169 175 172 162 153 149 146 144 150 150 156 155 154 155 152 155 155 146 146 149 156 148 147 148 142 125 126 122 120 122 122 125 125 128 132 136 133
174 172 169 168 168 176 173 164 151 139 151 158 154 152 151 151 140 132 140 149 152 149 144 139 141 154 149 145 141 134 128 131 132 128 129 127 124 120 119 122 124 127
161 163 162 162 169 169 160 156 156 154 143 139 134 132 132 127 126 124 112 95 102 119 124 129 136 150 147 143 138 136 135 137 138 135 134 138 133 121 112 109 128 133
157 162 166 168 169 160 155 153 141 136 148 142 133 129 125 121 114 119 120 114 119 128 137 139 140 146 151 149 148 144 144 139 143 139 144 144 143 141 132 128 136 147